Weather observations for the past three days for
San Antonio, Stinson Municipal Airport
Imperial (Metric)
Date Time (cdt) Wind (mph) Vis. (mi.) Weather Sky Cond. Temperature (ºF) Relative Humidity Wind Chill (°F) Heat Index (°F) Pressure Precipitation (in)
Air Dwpt 6 hour altimeter (in) sea level (mb) 1 hr 3 hr 6 hr
Max. Min.
23 18:53 E 8 10.00 Mostly Cloudy SCT055 BKN070 95 70 97 91 44% 101 29.86 1009.9
23 17:53 E 9 10.00 A Few Clouds FEW070 95 70 44% 101 29.87 1010.0
23 16:53 SE 9 G 20 10.00 A Few Clouds FEW050 FEW070 96.1 69.1 41% 102 29.88 1010.5
23 15:53 E 8 10.00 Partly Cloudy SCT055 96.1 70 43% 103 29.9 1011.2
23 14:53 SE 12 10.00 Fair CLR 96.1 69.1 41% 102 29.92 1011.9
23 13:53 S 13 10.00 Fair CLR 93.9 69.1 44% 99 29.94 1012.5
23 12:53 Vrbl 6 10.00 Fair CLR 91.9 66.9 91.9 73.9 44% 95 29.96 1013.3
23 11:53 Vrbl 6 10.00 Fair CLR 90 69.1 50% 95 29.98 1013.9
23 10:53 Vrbl 3 10.00 Fair CLR 84.9 69.1 59% 89 29.99 1014.1
23 09:53 NE 6 10.00 Fair CLR 84 71.1 65% 89 29.99 1014.2
23 08:53 Calm 10.00 Fair CLR 81 72 74% 85 29.99 1014.2
23 07:53 N 5 10.00 Fair CLR 78.1 73 85% 81 29.98 1013.9
23 06:53 Calm 10.00 Fair CLR 73.9 71.1 79 73 91% 29.97 1013.6
23 05:53 Calm 10.00 Fair CLR 73.9 71.1 91% 29.97 1013.6
23 04:53 Calm 10.00 Fair CLR 73.9 71.1 91% 29.96 1013.3
23 03:53 Calm 10.00 Fair CLR 75 71.1 88% 75 29.96 1013.4
23 02:53 Calm 10.00 Fair CLR 75.9 71.1 85% 76 29.98 1013.8
23 01:53 SE 3 10.00 Fair CLR 77 71.1 82% 79 29.99 1014.4
23 00:53 SE 7 10.00 Fair CLR 79 71.1 93.9 79 77% 82 30 1014.5
22 23:53 SE 10 10.00 Fair CLR 80.1 71.1 74% 84 30 1014.5
22 22:53 SE 7 10.00 Fair CLR 82.9 70 65% 87 29.99 1014.3
22 21:53 E 5 10.00 Fair CLR 84.9 69.1 59% 89 29.96 1013.4
22 20:53 E 7 10.00 Fair CLR 88 69.1 54% 92 29.95 1012.9
22 19:53 E 8 10.00 Fair CLR 91 69.1 49% 96 29.94 1012.5
22 18:53 E 9 10.00 A Few Clouds FEW080 93.9 68 95 89.1 43% 98 29.93 1012.1
22 17:53 E 9 10.00 A Few Clouds FEW060 93.9 66.9 41% 98 29.93 1012.3
22 16:53 E 7 10.00 Mostly Cloudy SCT060 BKN080 91.9 66.9 44% 95 29.95 1012.9
22 15:53 E 6 10.00 A Few Clouds FEW060 FEW070 93 66.9 42% 97 29.96 1013.3
22 14:53 SE 7 G 16 10.00 Mostly Cloudy BKN060 91.9 66.9 44% 95 29.99 1014.2
22 13:53 S 9 10.00 Partly Cloudy FEW049 SCT060 91 69.1 49% 96 30.01 1014.9
22 12:53 Vrbl 6 G 17 10.00 Mostly Cloudy BKN042 BKN050 90 69.1 90 77 50% 95 30.03 1015.4
22 11:53 SE 8 G 21 10.00 Partly Cloudy SCT034 SCT046 87.1 72 61% 94 30.04 1016.1
22 10:53 Vrbl 3 10.00 Partly Cloudy SCT024 84.9 72 65% 91 30.06 1016.5
22 09:53 SE 9 10.00 Partly Cloudy FEW010 SCT030 82 73.9 77% 88 30.07 1017.0
22 08:53 E 6 10.00 Overcast FEW007 BKN012 OVC028 79 75 88% 83 30.07 1017.2
22 07:53 E 5 10.00 Overcast BKN010 BKN018 OVC026 78.1 75 90% 81 30.07 1016.9
22 06:53 NE 6 10.00 Overcast FEW010 SCT020 OVC024 77 73.9 79 75.9 90% 78 30.06 1016.6
22 05:53 NE 3 10.00 Mostly Cloudy BKN023 77 73.9 90% 78 30.06 1016.4
22 04:53 NE 5 10.00 Mostly Cloudy SCT014 BKN023 77 73.9 90% 78 30.05 1016.3
22 03:53 Calm 10.00 Fair CLR 77 73.9 90% 78 30.05 1016.3
22 02:53 E 5 10.00 Fair CLR 77 73.9 90% 78 30.06 1016.4
22 01:53 Calm 10.00 Fair CLR 78.1 73 85% 81 30.07 1016.8
22 00:53 Calm 10.00 Fair CLR 79 73 87.1 78.1 82% 82 30.06 1016.7
21 23:53 SE 9 10.00 Fair CLR 80.1 73 79% 84 30.06 1016.7
21 22:53 SE 8 10.00 Fair CLR 81 73 77% 86 30.05 1016.4
21 21:53 SE 9 10.00 Fair CLR 82 73 74% 87 30.04 1015.9
21 20:53 SE 13 10.00 Fair CLR 82.9 72 70% 88 30.02 1015.4
21 19:53 SE 12 10.00 Partly Cloudy SCT120 86 72 63% 92 30.01 1014.9
21 18:53 SE 20 G 32 10.00 Partly Cloudy FEW055 SCT075 86 73 95 86 65% 93 30 1014.8
21 17:53 E 15 G 22 10.00 Partly Cloudy SCT055 93.9 69.1 44% 99 29.98 1014.0
21 16:53 E 10 G 21 10.00 Partly Cloudy SCT055 93.9 69.1 44% 99 30.01 1014.7
21 15:53 SE 13 G 17 10.00 Fair CLR 93.9 70 46% 100 30.02 1015.3
21 14:53 SE 12 G 18 10.00 A Few Clouds FEW050 93 70 47% 99 30.04 1016.0
21 13:53 E 13 10.00 Partly Cloudy SCT043 SCT050 91 70 50% 97 30.07 1016.7
21 12:53 E 9 G 20 10.00 Partly Cloudy SCT039 SCT080 90 72 90 78.1 56% 97 30.09 1017.6
21 11:53 E 12 G 17 10.00 Mostly Cloudy SCT027 SCT033 BKN041 86 73 65% 93 30.1 1018.1
21 10:53 E 12 10.00 Mostly Cloudy SCT020 BKN025 BKN040 84 73 70% 90 30.11 1018.2
21 09:53 E 7 10.00 Mostly Cloudy BKN015 BKN020 BKN031 82 75 79% 89 30.11 1018.4
21 08:53 E 8 10.00 Overcast BKN012 OVC020 80.1 75 85% 85 30.1 1018.0
21 07:53 E 8 5.00 Fog/Mist BKN009 OVC016 79 75 88% 83 30.08 1017.4
21 06:53 E 5 5.00 Overcast BKN014 OVC025 78.1 75 79 77 90% 81 30.07 1017.1
21 05:53 E 5 10.00 Overcast FEW008 OVC022 77 75 94% 78 30.06 1017.0
21 04:53 NE 7 10.00 Overcast BKN020 OVC028 77 75 94% 78 30.06 1016.8
21 03:53 E 7 10.00 Mostly Cloudy SCT024 BKN090 78.1 75 90% 81 30.05 1016.6
21 02:53 NE 7 10.00 Mostly Cloudy BKN020 78.1 75 90% 81 30.07 1017.0
21 01:53 E 7 10.00 Mostly Cloudy FEW018 BKN026 78.1 73.9 87% 81 30.08 1017.4
21 00:53 E 7 10.00 Fair CLR 79 75 82 79 88% 83 30.09 1017.8 0.01
20 23:53 E 6 10.00 Partly Cloudy FEW023 SCT032 79 75 88% 83 30.09 1017.6
20 22:53 E 6 10.00 A Few Clouds FEW028 79 75.9 90% 83 30.07 1017.2
20 21:53 E 6 10.00 A Few Clouds FEW036 79 75 88% 83 30.06 1016.6 0.01
20 20:53 E 8 10.00 Overcast FEW028 FEW034 OVC070 81 75 82% 87 30.03 1015.9
20 19:53 E 13 G 21 10.00 Mostly Cloudy FEW029 BKN065 81 75.9 85% 87 30.02 1015.3 0.01
Date Time (cdt) Wind (mph) Vis. (mi.) Weather Sky Cond. Air Dwpt Max. Min. Relative Humidity Wind Chill (°F) Heat Index (°F) altimeter (in) sea level (mb) 1 hr 3 hr 6 hr
6 hour
Temperature (ºF) Pressure Precipitation (in)